This is the latest recevied weather packets stored in our database for station/object N5YHM-13. If no packets are shown the sender has not sent any weather packets the latest 10 day(s).
| Time | Temp. | Humidity | Pressure | Rain* | Wind** | Luminosity | Snow |
|---|---|---|---|---|---|---|---|
| 1788106645 | 30.56° C | 80% | 1019.9 hPa | 0 mm | - | 15 W/m² | - |
| 1788106339 | 30.56° C | 80% | 1019.8 hPa | 0 mm | - | 36 W/m² | - |
| 1788106035 | 30.56° C | 80% | 1020 hPa | 0 mm | - | 17 W/m² | - |
| 1788105729 | 30.56° C | 80% | 1020.1 hPa | 0 mm | - | 17 W/m² | - |
| 1788105425 | 30° C | 83% | 1020 hPa | 0 mm | - | 19 W/m² | - |
| 1788105121 | 30° C | 81% | 1019.7 hPa | 0 mm | - | 22 W/m² | - |
| 1788104816 | 30° C | 82% | 1019.8 hPa | 0 mm | - | 140 W/m² | - |
| 1788104511 | 29.44° C | 85% | 1019.8 hPa | 0 mm | - | 20 W/m² | - |
| 1788104208 | 29.44° C | 85% | 1019.7 hPa | 0 mm | - | 19 W/m² | - |
| 1788103908 | 29.44° C | 86% | 1019.7 hPa | 0 mm | - | 109 W/m² | - |
| 1788103606 | 29.44° C | 86% | 1019.8 hPa | 0 mm | - | 16 W/m² | - |
| 1788103300 | 29.44° C | 85% | 1019.8 hPa | 0 mm | - | 21 W/m² | - |
| 1788102995 | 28.89° C | 87% | 1019.5 hPa | 0 mm | - | 19 W/m² | - |
| 1788102690 | 28.89° C | 87% | 1020 hPa | 0 mm | - | 30 W/m² | - |
| 1788102390 | 28.89° C | 87% | 1019.8 hPa | 0 mm | - | 13 W/m² | - |
| 1788102085 | 28.89° C | 87% | 1019.7 hPa | 0 mm | - | 10 W/m² | - |
| 1788101784 | 28.89° C | 88% | 1019.7 hPa | 0 mm | - | 15 W/m² | - |
| 1788101479 | 28.33° C | 88% | 1019.6 hPa | 0 mm | - | 10 W/m² | - |
| 1788101175 | 28.33° C | 89% | 1019.6 hPa | 0 mm | - | 9 W/m² | - |
| 1788100871 | 28.33° C | 89% | 1019.6 hPa | 0 mm | - | 8 W/m² | - |
| 1788100566 | 28.33° C | 89% | 1019.6 hPa | 0 mm | - | 20 W/m² | - |
| 1788100264 | 28.33° C | 89% | 1019.6 hPa | 0 mm | - | 17 W/m² | - |
| 1788099960 | 28.33° C | 89% | 1019.5 hPa | 0 mm | - | 26 W/m² | - |
| 1788099655 | 27.78° C | 90% | 1019.7 hPa | 0 mm | - | 16 W/m² | - |
| 1788099350 | 27.78° C | 91% | 1019.8 hPa | 0 mm | - | 52 W/m² | - |
* Rain latest hour (hover to see other rain measurements)
** Current wind speed in m/s (hover to see current wind gust speed)